Theta_e
303 303 302 301 300 300 299 298 298 298 299 299 300 300 300 300 301 300 300 300 299 298 298 298 297 298 297 298 299 299 299 303 303 298 297 297 295 294 294 294 292 292 293
298 298 297 297 297 295 296 296 297 296 296 297 297 297 298 297 298 297 296 296 296 295 295 295 295 295 296 296 296 296 296 297 299 295 295 295 292 293 292 291 290 290 291
294 294 294 293 293 292 292 293 294 294 294 295 295 295 295 296 295 295 294 293 293 293 293 293 294 295 294 295 295 295 295 295 296 295 292 293 293 292 291 291 290 290 289
291 291 292 292 293 293 293 292 293 293 293 293 294 294 294 293 293 293 293 293 292 291 292 292 292 292 293 294 293 293 294 293 293 292 291 290 290 289 290 287 287 288 285
291 290 291 292 292 292 292 291 292 292 292 292 292 292 292 292 292 292 292 292 291 290 290 291 289 288 289 290 292 292 292 291 291 290 289 288 286 285 284 286 285 286 285
289 289 290 290 291 291 291 290 290 290 291 292 291 291 291 290 290 290 291 290 290 289 289 289 289 288 289 290 290 290 290 290 289 288 287 284 282 283 284 284 283 282 281
288 289 289 290 289 289 290 289 289 289 290 290 290 291 290 290 289 288 288 289 289 288 288 288 287 288 288 289 289 288 287 287 287 287 283 282 282 282 282 282 282 281 280
287 286 287 288 288 288 288 288 288 288 288 289 289 290 290 289 289 288 287 288 288 287 287 286 286 285 286 288 288 286 286 285 285 284 284 283 282 283 282 282 281 281 282
285 285 285 286 286 287 287 287 288 288 287 287 288 287 287 287 288 287 288 287 286 286 285 284 284 284 284 286 286 285 284 283 284 283 282 282 282 282 282 282 280 280 279
282 283 284 285 285 285 286 286 287 287 286 287 285 286 284 286 287 287 287 287 285 285 284 284 283 283 283 284 284 283 282 283 282 281 280 280 280 280 279 279 279 277 277
280 281 282 282 283 284 285 285 286 286 286 286 283 283 283 284 285 286 286 285 284 284 283 283 283 283 282 282 283 282 282 282 281 280 279 279 278 278 277 278 277 277 275
279 279 279 279 281 282 283 284 283 284 284 283 282 282 282 283 283 284 284 285 286 284 283 283 282 282 281 281 280 280 280 280 279 278 277 276 275 275 275 275 275 275 274
276 275 276 277 278 279 281 282 283 283 283 282 282 281 281 281 283 283 284 284 284 285 284 282 281 279 278 278 278 277 277 278 277 277 275 273 273 272 273 274 274 273 273
274 275 276 276 276 277 279 280 282 281 282 282 282 281 281 281 282 284 284 284 282 283 282 280 278 277 276 274 274 274 274 275 275 275 273 273 273 273 271 271 272 272 274
274 274 275 276 275 276 277 278 279 281 282 281 282 281 280 281 282 283 282 282 282 283 282 281 280 277 275 274 273 272 273 273 273 272 273 272 272 272 270 270 269 271 270
274 274 273 274 274 274 275 276 278 279 282 285 283 282 282 283 282 282 281 281 281 281 282 280 277 275 273 272 272 271 271 270 270 271 271 270 270 270 270 270 270 269 269
270 270 272 271 272 272 273 274 275 278 278 282 284 284 283 282 281 281 280 280 279 279 280 278 276 274 272 271 271 272 270 268 267 269 269 269 269 268 269 269 269 269 269
266 263 269 270 270 271 271 272 272 273 274 277 278 280 282 281 279 279 279 277 276 275 275 274 273 272 271 271 271 270 270 269 268 269 267 266 267 268 268 267 267 265 267
268 269 267 268 268 267 269 271 271 272 273 273 275 279 279 279 276 275 275 274 273 272 272 271 271 271 270 270 269 269 269 268 267 267 266 265 265 268 265 265 266 259 261
265 262 262 267 268 269 269 269 270 271 272 272 274 275 276 277 275 272 271 272 271 271 270 270 269 269 269 268 268 268 268 268 267 267 265 265 265 265 264 264 264 265 265
266 266 260 266 267 266 266 267 267 268 270 271 271 273 273 273 271 270 269 269 270 269 269 269 268 268 267 267 268 268 268 267 265 264 265 264 264 265 262 263 264 263 262
265 265 265 266 265 266 266 265 266 267 268 270 269 268 269 269 269 268 267 266 266 266 267 268 267 267 267 267 268 268 267 266 264 264 263 261 263 263 263 263 263 264 263
264 265 264 264 264 261 264 264 266 266 267 267 266 267 266 266 265 266 265 265 265 264 264 266 265 263 262 262 263 266 267 266 264 263 263 262 262 264 263 264 262 263 261
264 264 265 265 264 265 266 265 265 262 264 265 266 265 265 264 265 264 264 264 264 263 263 262 263 262 260 261 262 262 261 260 260 260 261 263 261 260 262 260 260 258 259
263 264 264 265 265 265 264 264 264 263 263 264 264 264 263 264 264 264 264 264 263 263 261 260 261 260 260 259 260 260 259 256 258 256 259 261 260 259 258 259 259 260 258
262 263 263 263 263 263 265 265 264 263 263 263 263 262 263 263 264 264 263 263 263 262 261 260 260 260 260 261 260 258 259 257 255 255 261 262 261 260 260 258 257 259 258
Wind_Speed
14 14 15 13 15 12 13 11 9 10 12 11 10 10 11 11 10 10 10 9 11 9 8 7 8 7 5 5 4 4 4 3 3 3 4 4 4 5 6 6 7 6 6
14 16 17 16 15 14 13 12 10 11 11 10 9 11 11 12 11 11 11 10 10 10 9 9 8 5 6 5 4 5 4 4 1 7 4 3 5 5 5 5 5 4 5
15 14 15 16 14 12 12 11 11 12 10 12 11 12 12 11 10 11 11 11 10 10 9 9 7 7 7 5 6 5 5 5 5 4 3 3 3 4 3 5 6 7 5
14 14 14 13 13 12 12 11 12 11 11 12 12 11 10 11 10 10 10 11 11 11 11 11 10 9 6 5 5 5 4 5 5 5 4 4 3 4 4 6 6 6 6
14 14 14 12 12 13 12 11 11 10 10 11 11 11 12 11 8 9 10 10 10 10 10 10 10 10 12 13 5 6 6 4 4 5 5 4 4 4 7 6 5 5 3
12 12 10 10 11 11 12 12 9 10 11 11 12 11 12 9 14 12 9 9 9 9 8 8 8 7 10 13 14 18 13 6 6 5 5 5 7 6 5 5 5 5 3
13 12 12 11 11 11 9 9 9 9 9 10 10 10 11 10 13 13 10 8 9 9 9 7 7 7 6 7 11 14 16 18 16 8 8 7 5 6 6 5 5 4 4
12 12 12 11 10 9 8 8 8 7 8 8 9 9 9 9 11 11 9 9 9 10 10 10 9 9 10 6 7 8 10 11 10 7 7 6 5 5 4 4 5 3 2
12 11 11 10 9 7 7 7 7 5 6 7 7 8 9 10 14 12 8 7 8 10 10 11 8 8 11 10 4 5 7 8 11 13 12 11 11 12 9 3 6 4 2
10 9 8 8 8 8 6 7 5 4 4 4 7 8 8 9 13 13 7 4 6 6 7 7 12 10 11 8 4 2 3 4 4 4 5 5 6 8 13 10 6 6 4
9 8 7 7 6 6 5 6 5 4 3 5 6 6 7 8 9 12 12 7 5 4 4 4 5 11 12 10 7 4 4 4 5 4 4 4 4 6 6 7 9 7 6
6 5 6 7 6 6 7 6 6 5 5 5 4 4 5 6 9 10 11 10 7 4 4 4 5 10 11 10 7 7 7 5 3 3 4 4 4 5 5 5 7 7 5
7 7 8 7 7 7 6 6 4 5 4 4 4 3 3 2 3 6 9 8 7 3 4 7 9 9 9 9 11 9 6 4 4 4 4 4 4 4 5 3 4 3 1
6 6 6 6 8 7 5 4 4 5 5 4 3 2 2 2 2 2 3 4 6 5 7 5 9 9 11 7 5 7 6 5 4 4 4 3 3 5 5 5 4 4 3
3 4 6 6 7 6 6 4 3 2 3 3 3 2 2 3 4 6 6 4 4 4 3 2 2 3 4 5 5 5 5 5 5 4 4 4 4 4 5 4 4 5 6
2 3 4 4 4 5 6 5 2 5 8 5 2 1 1 5 7 7 6 6 8 7 2 1 2 3 4 3 3 4 4 4 4 4 4 4 4 4 4 4 4 5 5
3 3 2 2 3 4 4 5 5 4 3 7 8 3 7 6 7 8 6 5 7 3 1 2 3 3 3 3 3 3 3 3 2 4 4 3 3 3 3 4 4 4 4
3 2 3 3 2 3 3 3 3 4 3 3 5 8 4 7 6 8 8 1 3 5 3 3 3 3 3 3 3 3 3 3 3 3 3 3 3 3 3 4 4 3 3
3 3 3 3 2 3 3 3 3 3 2 2 3 2 6 9 6 8 10 4 3 4 3 4 3 3 3 3 3 3 3 3 3 3 3 3 3 3 4 3 3 2 3
2 3 3 3 3 2 2 3 3 3 3 2 2 3 3 2 2 3 4 3 3 3 3 3 3 3 3 3 3 3 3 3 3 3 3 3 3 3 3 3 3 3 3
1 1 3 2 2 2 2 2 3 3 2 1 2 5 7 1 2 2 2 3 3 3 3 3 3 3 2 2 2 2 3 3 2 2 2 2 1 3 2 2 2 1 3
1 1 2 1 1 1 1 2 2 2 2 2 1 3 6 3 3 2 3 3 3 2 2 3 3 3 2 1 1 2 2 3 2 2 3 2 2 3 2 1 2 2 3
2 2 2 2 2 1 1 0 0 1 1 2 3 2 3 3 3 3 3 2 2 2 2 2 3 3 2 2 1 1 1 2 2 1 3 3 2 2 1 2 2 2 3
3 3 3 3 3 2 2 2 1 1 1 1 2 2 2 1 2 2 2 2 2 2 2 2 2 3 3 2 2 2 2 2 2 2 3 3 3 2 2 2 2 3 3
3 3 3 3 4 3 3 3 2 1 0 1 1 1 1 0 1 1 1 1 1 2 2 1 1 3 4 4 3 3 3 4 2 2 2 4 5 5 3 2 2 2 4
3 3 3 2 3 3 2 3 3 2 1 1 0 0 0 0 0 0 1 1 1 1 2 2 2 3 5 4 4 4 5 6 4 2 3 3 4 3 3 3 3 2 3
Wind_Direction
53 62 66 53 60 51 55 53 43 41 52 47 50 46 52 53 48 68 70 71 82 68 49 57 53 39 33 27 30 41 31 356 142 92 78 98 66 41 35 39 30 34 67
49 54 53 53 55 54 52 37 40 49 45 56 49 58 58 58 58 62 64 51 56 61 58 57 48 44 53 32 34 46 45 33 84 135 106 110 58 28 30 30 32 39 48
45 53 60 61 55 50 60 46 45 49 44 56 51 50 55 55 59 62 70 70 61 59 57 59 45 49 48 37 38 35 33 33 41 107 107 62 74 23 22 26 35 28 33
45 45 47 54 60 65 62 49 47 41 45 50 53 53 47 53 56 60 65 70 66 57 51 48 41 36 39 47 54 50 49 61 62 88 90 83 46 26 14 12 15 23 18
45 46 43 44 58 58 53 53 55 52 50 51 54 53 54 46 36 59 65 65 70 67 59 58 58 56 44 43 40 40 46 64 69 76 76 66 39 23 17 359 355 351 73
47 43 34 39 46 44 49 47 47 54 56 58 60 59 57 52 49 58 78 80 77 75 72 67 58 42 56 56 59 59 51 60 76 80 71 63 37 14 352 357 1 358 12
47 41 37 40 47 43 48 55 55 56 63 62 64 67 69 64 55 58 62 73 72 66 61 58 53 35 31 59 66 67 60 59 55 60 69 46 35 354 337 1 9 11 36
41 34 27 27 35 36 41 44 48 48 54 60 63 66 70 58 55 59 65 77 74 66 58 50 46 35 22 35 66 72 65 58 57 58 67 66 43 3 350 354 350 12 93
29 23 15 13 17 17 37 38 41 48 57 60 61 61 65 52 42 39 51 68 71 69 63 49 44 38 26 13 77 96 92 82 71 77 74 69 57 40 24 17 21 20 65
11 4 7 9 17 10 359 35 23 37 65 79 69 57 42 54 40 45 49 66 73 75 68 63 56 41 34 35 38 87 90 84 103 94 87 72 55 56 46 44 20 31 24
346 350 1 1 6 2 9 26 19 28 53 74 78 61 57 47 45 41 44 55 52 62 69 66 57 53 38 36 43 55 53 94 91 91 81 66 52 47 42 40 39 33 34
349 360 3 6 8 6 13 15 15 19 39 47 62 68 51 45 43 40 39 41 35 75 97 87 66 59 56 41 48 54 72 89 93 92 81 57 42 36 30 33 35 45 45
360 10 5 6 10 8 9 6 17 23 27 31 44 42 40 33 29 39 36 35 34 57 111 102 86 67 67 56 44 49 53 67 79 80 73 59 37 30 23 31 49 7 118
355 5 355 3 358 2 359 6 13 19 10 19 18 37 32 29 26 41 37 30 36 73 104 89 85 78 74 72 42 42 44 40 56 72 72 55 37 41 42 20 24 1 26
359 0 359 356 357 350 351 343 356 325 332 350 7 15 44 55 56 32 16 17 17 5 129 148 69 59 65 64 63 49 47 50 61 50 60 57 50 48 45 19 28 35 54
340 8 7 346 344 354 343 337 333 354 341 344 185 16 162 60 36 20 27 17 3 337 229 212 85 61 74 75 74 73 53 56 45 55 58 54 54 47 44 43 43 46 40
336 339 331 341 357 353 340 338 338 341 342 19 32 118 89 67 37 22 10 359 15 353 147 78 93 105 104 86 73 61 76 53 23 59 57 53 58 60 41 45 38 35 30
297 303 312 333 345 329 328 332 329 334 332 325 8 12 347 102 53 17 2 33 36 39 59 81 100 109 112 107 102 101 99 92 69 65 65 56 48 44 52 49 42 11 360
295 303 320 315 317 323 318 308 306 310 327 326 329 50 32 83 55 26 30 43 46 58 63 82 90 101 103 103 99 88 81 71 64 80 66 59 46 36 61 46 40 19 320
246 287 300 298 305 307 325 320 321 333 339 351 5 8 345 334 354 22 32 38 65 76 82 91 88 98 105 112 114 118 118 113 91 83 78 74 62 43 67 46 26 359 6
233 248 304 273 301 335 347 346 335 321 306 313 19 350 19 29 74 51 45 51 69 95 102 105 108 102 101 105 122 117 108 105 89 103 103 93 77 83 58 49 17 345 339
213 253 254 275 301 292 340 323 311 300 302 302 352 359 18 50 65 73 74 66 52 42 56 104 111 102 95 103 116 131 133 129 135 134 112 117 110 93 83 48 352 339 338
175 219 245 232 239 209 198 146 21 347 348 342 334 13 34 43 49 59 71 65 65 67 48 91 119 120 100 86 28 16 136 128 114 127 130 126 125 101 63 40 6 345 1
192 189 238 235 226 203 168 134 109 60 348 2 354 7 36 56 79 82 83 100 107 86 68 84 90 124 130 128 120 90 91 109 114 104 96 114 109 110 80 72 37 13 9
217 179 215 245 231 197 171 154 148 141 18 353 19 24 37 8 66 93 95 96 94 116 102 106 115 130 128 130 128 126 131 114 111 107 98 91 96 90 80 64 27 35 27
203 205 179 224 257 250 215 167 151 152 148 123 81 24 348 173 126 174 146 153 144 132 139 138 155 152 146 138 144 142 151 147 139 100 100 108 109 101 94 85 45 38 29